Regional Weather Roundup
Issued by NWS Jackson, KY

Home | Current Version | Previous Version | Graphics & Text | Print | Product List | Glossary On
Versions: 1 2 3 4 5 6 7 8 9 10 11 12 13 14 15 16 17 18 19 20 21 22 23 24 25 26 27 28 29 30 31 32 33 34 35 36 37 38 39 40 41 42 43 44 45 46 47 48 49 50
000
ASUS43 KJKL 211110
RWRJKL

EAST KENTUCKY HOURLY WEATHER ROUNDUP
NATIONAL WEATHER SERVICE JACKSON KY
600 AM EST TUE FEB 21 2017

NOTE: "FAIR" INDICATES FEW OR NO CLOUDS BELOW 12,000 FEET WITH
NO SIGNIFICANT WEATHER AND/OR OBSTRUCTIONS TO VISIBILITY.

* THESE REPORTS ARE NOT UNDER NWS QUALITY CONTROL AND MAY NOT
  REPORT WEATHER SUCH AS PRECIPITATION AND FOG.

KYZ079-080-083-085-087-088-110-112-115-119-120-211200
...EASTERN KENTUCKY...

CITY           SKY/WX    TMP DP  RH WIND       PRES   REMARKS
JACKSON        CLOUDY    55  37  50 S6        30.09S
LONDON         PTCLDY    51  39  63 SE6       30.08F
SOMERSET*      PTCLDY    50  41  71 CALM      30.08S
MONTICELLO*    CLOUDY    60  44  55 E7        30.07F
WILLIAMSBURG*  MOSUNNY   54  43  66 SE8       30.08F
MIDDLESBORO*   CLOUDY    40  40 100 CALM      30.13S
HARLAN APT*    CLOUDY    54  36  50 CALM      30.13R
PIKE CO APT*     N/A     56  33  41 S5        30.11S
BIG SANDY APT* MOSUNNY   55  35  46 S6        30.09F
MOREHEAD APT*  MOSUNNY   52  39  62 S8        30.07S
ASHLAND*       PTCLDY    43  39  87 SE3       30.06S
$$

KYZ035-036-041-042-044-050-067-078-099-211200
...CENTRAL KENTUCKY...

CITY           SKY/WX    TMP DP  RH WIND       PRES   REMARKS
MT STERLING*   PTCLDY    55  41  58 S10       30.06S
FLEMING/MASON* CLOUDY    52  40  64 S7        30.05S
DANVILLE*      CLOUDY    54  43  66 S5        30.05F
LEXINGTON      PTCLDY    59  43  55 S15       30.03S
FRANKFORT      PTCLDY    50  40  68 S3        30.01S
LOUISVILLE     CLOUDY    56  41  57 SE3       29.99F
LEBANON*         N/A     59  45  58 S13       30.02S
GLASGOW*       CLOUDY    61  44  54 S6        30.01R
BOWLING GREEN  CLOUDY    51  45  79 CALM      30.01R
$$

KYZ091>093-OHZ055-061-077-WVZ005-015-034-035-042-211200
...SOUTHERN OHIO/WEST VIRGINIA...

CITY           SKY/WX    TMP DP  RH WIND       PRES   REMARKS
COVINGTON      MOCLDY    50  41  71 S8        30.01S
COLUMBUS       CLOUDY    51  37  58 SE5       30.02F
DAYTON         CLOUDY    50  40  68 S8        30.02R
WILMINGTON     CLOUDY    50  40  68 S5        30.02S
HUNTINGTON     PTCLDY    47  39  74 CALM      30.07S
CHARLESTON     MOCLDY    49  38  65 CALM      30.09R
PINEVILLE*     CLOUDY    43  36  76 MISG      30.19S
BECKLEY        PTCLDY    52  36  54 SE12G22   30.15F
BLUEFIELD      PTCLDY    53  37  54 S10G22    30.17F
LOGAN CO APT*    N/A     59  34  38 CALM      30.12R
$$

VAZ002-007-008-TNZ017-027-036-066-071-211200
...SOUTHWEST VIRGINIA/EAST TENNESSEE...

CITY           SKY/WX    TMP DP  RH WIND       PRES   REMARKS
WISE*          CLOUDY    54  32  43 SE3       30.15F
JONESVILLE*      N/A     41  39  93 CALM      30.16R
ABINGDON*      PTCLDY    54  40  60 E8        30.16R
BRISTOL        CLOUDY    41  36  82 CALM      30.15R
MORRISTOWN*    SUNNY     46  43  87 CALM      30.12R
SEVIERVILLE*   SUNNY     41  39  93 CALM      30.12R
KNOXVILLE      CLOUDY    47  42  83 E3        30.10S
LAFOLLETTE*    SUNNY     41  41 100 CALM      30.14S
OAK RIDGE      PTCLDY    46  43  89 CALM      30.12S
CROSSVILLE     PTCLDY    54  42  64 CALM      30.08S
NASHVILLE      CLOUDY    56  45  66 E7        30.00R
$$

...KEY TO REMARKS...
VSB - VISIBILITY IN MILES
WCI - WIND CHILL INDEX
HX  - HEAT INDEX

$$



USA.gov is the U.S. government's official web portal to all federal, state and local government web resources and services.